Vertical_Velocity
-1 0 -1 -1 -1 -1 -1 -1 -1 -2 -3 3 -6 7 4 -5 -3 -1 -1 -2 -3 -3 -1 -1 0 -1 -1 0 0 0 -1 1 -1 -3 -2 -2 -2 -2 -2 -3 -3 -1 -1 0
-0 -1 -1 -1 -1 -2 -1 -1 -3 1 -1 -2 -6 9 4 -0 -4 -1 -2 -3 -2 -1 -1 -2 -1 1 1 -1 -0 -0 -2 0 -1 -2 -1 -1 -0 -1 -2 -4 -4 -1 -1 0
0 -1 -1 -0 -2 -2 -2 -3 -2 -3 -1 -2 -9 4 16 1 -3 -0 -2 -2 -4 1 -1 -0 0 1 0 -0 -1 -0 -1 -2 0 -1 -2 -2 -1 0 -3 -4 -3 -2 -1 -2
1 -2 -1 -1 -1 -2 3 -3 -3 -3 -6 -4 14 -38 10 8 4 -2 1 1 -0 -1 1 1 -1 -0 -0 1 -1 -1 1 -1 -0 1 -0 -1 -2 -1 -2 -3 -3 -2 -3 -1
0 0 0 0 -2 -3 -2 -1 -3 -3 -3 -12 12 -19 11 0 5 1 1 1 3 -2 -2 -2 0 2 2 1 -0 0 0 1 -0 -1 -1 -1 -2 -1 -2 -3 -2 -3 -2 -3
-1 -0 -0 2 0 -0 -3 -1 -5 -4 -4 -10 -1 -3 14 1 0 2 0 2 -0 4 3 1 0 -0 -0 1 1 1 1 1 1 -1 -0 -1 -1 -1 -2 -2 -3 -2 -2 -1
-3 1 1 0 -1 -2 -2 -1 -11 -17 -8 -3 -4 -22 18 3 -2 0 2 3 -2 3 1 1 1 1 -0 -0 -1 -2 -1 -1 -1 -1 -0 0 0 -1 -2 -3 -4 -2 -2 -2
-2 3 5 8 2 0 3 1 8 -29 -7 -7 -2 -16 2 -0 4 -1 0 1 0 1 1 1 -0 -1 -1 -1 0 -0 -1 0 -0 1 1 0 0 1 1 -2 -0 -1 -2 -2
-12 -0 2 2 4 6 3 3 3 -5 -6 -18 2 2 -7 2 1 -3 1 0 1 1 1 0 -2 -2 -1 1 0 3 4 1 1 0 -2 -1 -0 -1 -1 0 -2 -3 -4 -5
-6 -25 8 2 -0 8 -0 -3 -0 12 -20 -16 -6 -15 -1 -2 2 1 -2 1 0 -0 1 -0 -0 -1 -1 -2 -0 5 -1 -1 -0 -1 -1 1 2 2 1 0 -1 -2 -2 -2
-2 -4 11 2 10 6 0 -1 2 5 2 -4 -20 -4 2 -2 -3 -2 0 -0 -0 1 -1 0 1 -0 0 -0 -0 0 -0 -0 -1 -1 2 4 2 0 1 0 0 -1 -2 -2
1 -17 -13 -4 -2 5 4 -1 5 -4 -0 2 2 -35 6 5 -3 -3 -3 -3 -2 1 1 1 1 2 -0 -2 1 0 2 5 2 4 4 -2 -1 -2 -2 -2 -4 -2 -1 -5
2 -14 -16 -5 4 8 -4 7 5 7 6 -1 -10 -13 -3 -8 -5 -4 -4 -2 -3 -1 -0 1 1 1 1 3 5 2 3 5 7 5 1 1 2 -1 -1 -2 -4 0 -0 -5
-2 1 -1 -18 7 -1 -2 2 3 5 -4 11 -11 -6 13 -1 -6 -3 -1 1 -1 -1 -2 -3 -2 -1 -0 -1 2 3 1 1 4 2 8 6 7 6 3 -1 -3 -1 -1 0
-4 -20 6 0 4 -3 -5 -8 4 -7 8 -4 14 -21 24 -6 7 1 -1 -1 -1 -1 -0 -0 1 -1 -1 6 1 1 2 -1 -1 -2 5 12 7 4 -0 2 1 3 1 -1
1 -17 3 -24 20 8 -12 -6 8 13 9 -17 3 -24 0 1 -4 -4 -3 -3 -1 0 1 1 1 -1 1 7 7 2 5 13 12 5 1 0 -3 -2 -4 3 3 -1 -2 -0
-6 3 8 -47 29 4 -57 42 12 2 14 11 -6 7 -1 2 4 3 3 4 2 1 -0 0 0 7 4 5 1 1 -2 3 2 3 -2 -2 2 1 0 -3 -0 0 -1 0
-6 8 13 -16 11 -27 13 4 6 1 8 7 -5 4 2 -1 -1 1 3 2 0 1 3 2 1 3 7 6 11 5 3 1 2 2 -1 -3 -0 -3 -4 -2 2 -2 -5 -3
18 11 6 2 1 -2 -34 4 1 4 -1 -2 6 0 0 2 3 2 1 2 -3 4 10 6 6 4 6 3 3 -0 -1 1 1 3 2 -2 -3 -0 1 0 -3 -4 -2 1
20 11 6 7 1 -11 2 -4 -4 -1 -30 14 6 1 3 -0 9 6 0 4 7 8 5 -1 2 3 1 -3 0 2 2 1 1 -1 -0 1 -0 -3 -3 -3 1 -2 -3 -1
3 9 6 6 -0 -11 -2 -1 1 -1 -4 0 6 2 13 14 8 1 1 1 2 2 4 5 1 -3 -0 -2 -2 -1 -3 -2 -1 -2 -2 -2 -4 -4 -3 -2 -0 -1 -2 -3
10 12 11 6 6 -6 7 8 11 21 21 5 7 1 -3 3 3 3 2 7 4 3 2 4 5 3 -3 -2 -2 -4 -3 -2 -2 -2 -3 -4 -4 1 -3 -2 0 -2 -3 -2
0 8 15 11 16 12 12 11 4 3 6 8 8 11 7 5 2 5 1 0 -3 -1 -4 -4 -3 -4 -3 -3 -3 -2 1 -2 -1 -4 -4 1 -2 3 -2 -3 -2 -2 -2 -4
12 11 6 6 5 2 7 -4 10 13 8 4 7 5 3 2 6 3 0 -2 -7 -8 -5 -1 -3 -4 -0 -3 -5 -6 -1 -2 -1 2 2 0 2 2 -2 -3 -5 -4 1 -1
2 3 10 0 -1 0 8 10 6 8 10 9 5 3 1 2 2 2 -5 -5 1 3 -3 -1 0 -1 -4 -5 -3 -2 2 0 -1 -1 -1 2 -1 -0 -0 -2 -1 -2 0 -5
4 5 9 5 0 5 3 6 10 11 8 4 2 4 4 -4 -4 1 -4 -4 -2 -1 -1 -4 -2 -3 -3 -0 2 2 2 -3 -3 0 -2 -1 -0 -0 -3 -2 6 -2 -9 -0
Height
5804 5802 5800 5798 5796 5794 5792 5790 5788 5786 5783 5782 5779 5778 5775 5771 5769 5765 5761 5758 5753 5749 5745 5743 5742 5740 5737 5735 5733 5731 5729 5727 5724 5722 5720 5718 5716 5713 5710 5707 5704 5700 5697 5695
5799 5797 5794 5792 5790 5788 5786 5783 5781 5780 5776 5774 5772 5771 5768 5763 5762 5757 5754 5750 5746 5742 5738 5736 5734 5732 5730 5727 5725 5723 5721 5719 5716 5713 5710 5708 5706 5704 5701 5698 5695 5691 5689 5687
5793 5791 5788 5787 5784 5782 5780 5777 5775 5772 5768 5766 5762 5763 5761 5755 5753 5749 5745 5742 5738 5735 5731 5728 5726 5724 5722 5719 5716 5714 5712 5710 5707 5704 5701 5699 5698 5695 5692 5689 5686 5683 5681 5678
5787 5784 5782 5780 5778 5775 5774 5771 5767 5763 5760 5757 5754 5751 5755 5746 5743 5739 5736 5733 5730 5727 5724 5720 5717 5714 5712 5710 5707 5705 5702 5700 5697 5694 5692 5690 5689 5687 5683 5680 5677 5675 5673 5670
5781 5777 5776 5774 5771 5768 5766 5762 5759 5755 5752 5749 5747 5740 5743 5739 5733 5728 5725 5722 5720 5717 5715 5712 5708 5705 5703 5700 5697 5694 5692 5689 5687 5685 5683 5681 5679 5676 5674 5671 5668 5665 5663 5661
5773 5770 5768 5766 5762 5760 5756 5753 5749 5746 5743 5740 5737 5732 5734 5729 5723 5718 5714 5711 5708 5706 5704 5702 5699 5696 5693 5690 5687 5684 5682 5679 5677 5675 5673 5671 5668 5666 5663 5660 5658 5655 5653 5650
5764 5762 5759 5757 5754 5750 5747 5743 5738 5735 5732 5730 5725 5721 5724 5717 5711 5706 5704 5700 5697 5695 5693 5691 5689 5685 5682 5680 5677 5674 5671 5669 5667 5665 5662 5659 5657 5654 5651 5649 5647 5644 5641 5639
5754 5754 5751 5748 5744 5741 5737 5734 5729 5720 5721 5720 5712 5709 5710 5704 5700 5696 5692 5689 5687 5684 5681 5679 5676 5673 5670 5667 5665 5661 5659 5658 5655 5652 5649 5647 5645 5642 5640 5638 5635 5633 5630 5628
5742 5742 5739 5736 5734 5731 5728 5723 5718 5709 5708 5703 5703 5699 5694 5693 5690 5686 5682 5679 5676 5673 5669 5666 5663 5659 5657 5655 5652 5649 5647 5645 5642 5639 5636 5634 5631 5629 5627 5625 5623 5620 5617 5614
5732 5729 5728 5725 5722 5720 5714 5711 5706 5699 5690 5685 5689 5685 5680 5680 5678 5674 5670 5667 5664 5660 5657 5653 5650 5647 5644 5642 5640 5637 5633 5631 5629 5626 5623 5620 5618 5616 5613 5611 5608 5605 5602 5599
5719 5716 5719 5712 5710 5706 5702 5698 5693 5686 5679 5672 5671 5673 5670 5668 5666 5663 5659 5656 5652 5649 5646 5643 5640 5637 5633 5630 5627 5623 5619 5616 5613 5610 5608 5605 5602 5599 5598 5595 5592 5589 5585 5582
5703 5699 5700 5699 5694 5691 5687 5683 5678 5669 5667 5661 5656 5659 5660 5657 5653 5648 5645 5643 5640 5637 5634 5631 5628 5624 5621 5617 5613 5609 5606 5603 5599 5597 5593 5589 5586 5583 5580 5577 5574 5571 5568 5565
5687 5683 5681 5681 5680 5677 5671 5668 5664 5658 5653 5649 5645 5645 5645 5641 5638 5634 5631 5629 5625 5623 5620 5616 5613 5609 5606 5603 5600 5595 5592 5589 5586 5582 5577 5574 5571 5567 5564 5560 5556 5552 5549 5545
5670 5669 5665 5664 5664 5658 5655 5655 5650 5644 5638 5637 5633 5633 5631 5627 5622 5621 5617 5613 5610 5608 5605 5601 5597 5593 5590 5587 5584 5579 5575 5572 5568 5565 5562 5558 5553 5549 5544 5541 5537 5533 5528 5524
5654 5652 5649 5649 5646 5641 5639 5640 5637 5626 5626 5619 5625 5614 5616 5611 5608 5604 5599 5596 5593 5590 5587 5583 5580 5577 5573 5570 5567 5564 5559 5555 5551 5547 5545 5541 5536 5530 5525 5520 5515 5510 5505 5499
5639 5633 5631 5632 5630 5624 5620 5628 5621 5618 5613 5605 5605 5604 5600 5595 5591 5587 5583 5580 5576 5573 5570 5566 5563 5560 5557 5554 5550 5547 5543 5539 5535 5530 5523 5519 5513 5506 5503 5498 5493 5487 5480 5474
5623 5620 5614 5610 5615 5604 5600 5614 5610 5604 5600 5593 5587 5588 5584 5579 5575 5571 5567 5563 5559 5555 5552 5549 5546 5544 5540 5536 5532 5527 5523 5519 5514 5508 5502 5496 5490 5485 5479 5473 5467 5461 5456 5450
5608 5603 5598 5591 5595 5580 5591 5591 5587 5584 5582 5576 5571 5568 5564 5561 5557 5553 5550 5546 5543 5539 5536 5533 5531 5528 5523 5519 5514 5509 5504 5499 5492 5485 5478 5472 5466 5461 5455 5449 5442 5437 5433 5427
5593 5588 5581 5576 5571 5566 5570 5573 5568 5563 5560 5557 5553 5547 5545 5541 5538 5535 5532 5529 5525 5523 5520 5516 5513 5509 5504 5498 5494 5489 5483 5478 5471 5464 5455 5448 5443 5438 5433 5427 5422 5416 5410 5403
5577 5569 5563 5559 5553 5547 5555 5553 5549 5544 5537 5540 5534 5530 5527 5523 5521 5518 5515 5512 5509 5505 5501 5497 5492 5487 5482 5478 5472 5467 5462 5456 5448 5442 5436 5429 5422 5417 5412 5407 5400 5393 5386 5381
5553 5548 5543 5541 5535 5532 5533 5533 5531 5526 5525 5519 5516 5513 5510 5508 5506 5502 5499 5497 5494 5489 5484 5478 5471 5465 5460 5457 5451 5445 5439 5434 5427 5421 5414 5407 5400 5394 5389 5384 5377 5372 5366 5361
5535 5532 5529 5525 5522 5523 5521 5516 5517 5513 5506 5503 5499 5496 5493 5489 5488 5486 5481 5476 5471 5467 5463 5459 5452 5445 5439 5435 5430 5423 5416 5410 5405 5399 5391 5384 5377 5372 5368 5363 5358 5352 5347 5343
5518 5516 5516 5514 5510 5502 5500 5498 5497 5494 5488 5485 5482 5477 5474 5472 5471 5468 5461 5457 5453 5449 5443 5437 5433 5425 5418 5413 5407 5402 5395 5390 5384 5377 5370 5364 5359 5354 5349 5344 5339 5334 5328 5323
5496 5496 5495 5494 5492 5488 5485 5485 5485 5478 5471 5468 5464 5462 5460 5457 5451 5446 5442 5438 5435 5430 5424 5418 5413 5407 5400 5393 5388 5382 5376 5370 5364 5358 5352 5347 5342 5337 5330 5324 5318 5313 5308 5302
5478 5478 5477 5476 5476 5474 5472 5467 5463 5459 5455 5452 5450 5448 5444 5439 5435 5429 5425 5420 5415 5410 5405 5400 5394 5388 5381 5376 5368 5360 5356 5351 5347 5341 5335 5330 5324 5317 5310 5304 5297 5291 5285 5279
5464 5465 5465 5462 5463 5459 5455 5454 5451 5447 5443 5440 5438 5433 5428 5424 5420 5413 5406 5402 5398 5392 5387 5382 5375 5369 5362 5357 5351 5343 5338 5333 5328 5323 5317 5310 5303 5295 5288 5282 5278 5267 5260 5256